Regional Weather Roundup
Issued by NWS

Home | Current Version | Previous Version | Text Only | Print | Product List | Glossary Off
Versions: 1 2 3 4 5 6 7 8 9 10 11 12 13 14 15 16 17 18 19 20 21 22 23 24 25 26 27 28 29 30 31 32 33 34 35 36 37 38 39 40 41 42 43 44 45 46 47 48 49 50

000
ASUS43 KOAX 181710
RWRNE

WEATHER ROUNDUP FOR NEBRASKA
NATIONAL WEATHER SERVICE OMAHA NE
1200 PM CDT WED APR 18 2018

NOTES: SATELLITE DATA IS BEING USED TO AUGMENT CLOUD COVER ABOVE
       12000 FEET.
       "FAIR" INDICATES FEW OR NO CLOUDS BELOW 12,000 FEET WITH NO
       SIGNIFICANT WEATHER AND/OR OBSTRUCTIONS TO VISIBILITY.


NEZ001>004-019>022-054>056-181800-
NEBRASKA PANHANDLE

CITY           SKY/WX    TMP DP  RH WIND       PRES   REMARKS
SCOTTSBLUFF    MOSUNNY   51  30  44 N22G33    30.22R
ALLIANCE       SUNNY     49  32  52 NW23G30   30.17R
CHADRON        SUNNY     52  32  46 NW18G26   30.17R
GORDON         CLOUDY    46  35  65 N21G30    30.15R
KIMBALL        MOSUNNY   47  22  38 NW24G31   30.23R
SIDNEY         MOSUNNY   51  26  37 NW28G36   30.21R
$$

NEZ057>060-069>072-079>082-181800-
SOUTHWEST NEBRASKA

CITY           SKY/WX    TMP DP  RH WIND       PRES   REMARKS
NORTH PLATTE   MOSUNNY   49  33  54 N25G38    30.13R
IMPERIAL       MOSUNNY   52  30  43 NW22G40   30.16S
LEXINGTON      MOSUNNY   45  33  63 NW28      30.13R
MCCOOK         PTSUNNY   52  31  44 N26G41    30.13R
OGALLALA       MOSUNNY   52  32  46 NW29G35   30.15S
$$

NEZ005>010-023>029-035>040-094-181800-
NORTH CENTRAL NEBRASKA

CITY           SKY/WX    TMP DP  RH WIND       PRES   REMARKS
VALENTINE      CLOUDY    37  32  82 NW14G22   30.14R WCI  28
AINSWORTH      CLOUDY    34  32  92 NW18G25   30.12R WCI  23
BROKEN BOW     CLOUDY    40  32  73 NW20G29   30.11R WCI  30
O`NEILL        CLOUDY    37  34  90 NW17G26   30.07R FOG     WCI  27
ORD            LGT SNOW  36  33  89 NW21      30.09R FOG     WCI  25
THEDFORD       CLOUDY    40  33  77 NW21G28   30.14R WCI  30
$$

NEZ041-046>049-061>064-073>077-083>087-181800-
SOUTH CENTRAL NEBRASKA

CITY           SKY/WX    TMP DP  RH WIND       PRES   REMARKS
GRAND ISLAND   CLOUDY    39  30  70 NW22G33   30.08R WCI  29
AURORA         CLOUDY    38  32  78 NW28      30.07R WCI  26
HASTINGS       CLOUDY    38  30  73 N25G36    30.09R WCI  27
HEBRON         CLOUDY    40  27  60 N23G37    30.07R WCI  30
HOLDREGE       PTSUNNY   41  31  69 N23G32    30.11R
KEARNEY        CLOUDY    39  27  62 N28G35    30.10R WCI  28
YORK             N/A     37  36  93 NW22      30.05R WCI  27
$$

NEZ011>018-030>034-042>045-181800-
NORTHEAST NEBRASKA

CITY           SKY/WX    TMP DP  RH WIND       PRES   REMARKS
NORFOLK        LGT SNOW  33  31  92 NW12      30.00R FOG     WCI  24
ALBION         LGT SNOW  36  32  88 NW15G22   30.05R WCI  26
BLAIR          FLURRIES  35  32  89 NW18G28   29.98R WCI  24
COLUMBUS       CLOUDY    38  33  82 NW20G26   30.04R WCI  28
FREMONT        FLURRIES  37  32  84 NW13G21   30.01R WCI  28
TEKAMAH        CLOUDY    35  31  85 N16       29.99R WCI  25
WAYNE          LGT SNOW  34  33  96 N22       30.01R WCI  22
$$

NEZ050>053-065>068-078-088>093-181800-
SOUTHEAST NEBRASKA

CITY           SKY/WX    TMP DP  RH WIND       PRES   REMARKS
LINCOLN        CLOUDY    37  28  70 N18       30.03R WCI  27
OMAHA EPPLEY   FLURRIES  37  30  75 N25G32    29.98R WCI  25
BEATRICE       CLOUDY    38  30  73 N26       30.03R WCI  26
FALLS CITY     CLOUDY    37  30  75 NW23G33   29.98R WCI  26
NEBRASKA CITY  CLOUDY    34  34  99 NW20G26   29.98R WCI  22
PLATTSMOUTH    CLOUDY    34  31  88 NW17G25   29.98R WCI  23
$$

NEZ044-045-051>053-067-181800-
OMAHA AREA

CITY           SKY/WX    TMP DP  RH WIND       PRES   REMARKS
OMAHA EPPLEY   FLURRIES  37  30  75 N25G32    29.98R WCI  25
BLAIR          FLURRIES  35  32  89 NW18G28   29.98R WCI  24
FREMONT        FLURRIES  37  32  84 NW13G21   30.01R WCI  28
MILLARD        CLOUDY    37  30  76 NW10G22   30.00R WCI  29
OFFUTT AFB     FLURRIES  36  28  73 NW15      29.98R WCI  27
PLATTSMOUTH    CLOUDY    34  31  88 NW17G25   29.98R WCI  23
WAHOO          CLOUDY    38  31  78 N18G25    30.01R WCI  28
$$




USA.gov is the U.S. government's official web portal to all federal, state and local government web resources and services.